DW7857 Weather Reports


Display with metric or nautical units.
time (UTC)temp
F
wind
direction
speed
MPH
gust
MPH
rain 1hr
in
rain 24hr
in
rain mn
in
humidity
%
barometer
mb
20190616044030 55 248 9.0 14.0 0.04 0.11 0.04 92 1009.8
20190616043030 55 178 7.0 13.0 0.04 0.11 0.04 91 1009.7
20190616042029 55 216 8.0 11.0 0.04 0.11 0.04 91 1009.7
20190616041030 55 191 4.0 6.0 0.02 0.09 0.02 92 1009.9
20190616040030 55 218 5.0 8.0 0.02 0.09 0.02 92 1009.7
20190616035030 55 270 5.0 8.0 0.00 0.07 0.00 92 1009.8
20190616034030 55 171 6.0 8.0 0.00 0.07 0.00 92 1009.9
20190616033030 54 195 5.0 9.0 0.00 0.07 0.00 92 1009.7
20190616032030 54 187 4.0 6.0 0.00 0.07 0.00 92 1010.0
20190616031030 54 206 5.0 7.0 0.00 0.07 0.00 95 1010.1
20190616030030 54 179 7.0 8.0 0.00 0.07 0.00 95 1010.1
20190616025030 54 205 4.0 8.0 0.00 0.07 0.00 95 1010.1
20190616024030 54 210 5.0 7.0 0.00 0.07 0.00 95 1010.1
20190616023030 54 200 4.0 5.0 0.00 0.07 0.00 94 1010.2
20190616022030 53 170 4.0 5.0 0.00 0.07 0.00 94 1010.2
20190616021030 53 182 5.0 8.0 0.00 0.07 0.00 94 1010.3
20190616020030 53 229 3.0 5.0 0.00 0.07 0.00 94 1010.3
20190616015030 53 170 5.0 8.0 0.00 0.07 0.00 93 1010.2
20190616014030 52 236 3.0 7.0 0.00 0.07 0.00 92 1010.4
20190616013030 51 159 1.0 2.0 0.00 0.07 0.00 92 1010.4
20190616012030 51 192 1.0 2.0 0.00 0.07 0.00 92 1010.6
20190616011030 51 188 2.0 2.0 0.00 0.07 0.00 91 1010.7
20190616010030 51 188 3.0 3.0 0.00 0.07 0.00 91 1010.6
20190616005030 51 216 2.0 3.0 0.00 0.07 0.00 91 1010.5
20190616004030 51 153 1.0 2.0 0.00 0.07 0.00 91 1010.5
20190616003030 50 191 1.0 3.0 0.00 0.07 0.00 90 1010.3
20190616002030 50 234 1.0 2.0 0.00 0.07 0.00 90 1010.7
20190616001030 50 165 1.0 3.0 0.00 0.07 0.00 90 1010.7
20190616000023 50 160 1.0 3.0 0.00 0.07 0.00 90 1010.7
20190615235030 50 215 2.0 3.0 0.00 0.07 0.07 89 1010.8
20190615234030 50 179 1.0 3.0 0.00 0.07 0.07 89 1010.8
20190615233030 50 160 1.0 2.0 0.00 0.07 0.07 88 1010.9
20190615232030 50 139 1.0 2.0 0.00 0.07 0.07 88 1010.5
20190615231030 50 154 1.0 2.0 0.00 0.07 0.07 88 1010.8
20190615230030 51 197 1.0 3.0 0.00 0.07 0.07 87 1010.8
20190615225030 51 188 2.0 3.0 0.00 0.07 0.07 87 1011.0
20190615224030 51 202 1.0 2.0 0.00 0.07 0.07 87 1010.6
20190615223030 52 216 2.0 3.0 0.00 0.07 0.07 87 1010.7
20190615222030 52 193 3.0 4.0 0.00 0.07 0.07 87 1010.6
20190615221030 52 210 3.0 4.0 0.00 0.07 0.07 86 1010.5
20190615220030 52 157 3.0 4.0 0.00 0.07 0.07 85 1010.7
20190615215030 52 185 2.0 4.0 0.00 0.07 0.07 85 1010.6
20190615160030 61 169 9.0 14.0 0.00 0.07 0.07 60 1008.7
20190615155030 63 206 6.0 12.0 0.00 0.07 0.07 55 1008.8
20190615154030 64 274 9.0 13.0 0.00 0.07 0.07 51 1008.6
20190615153017 63 208 14.0 17.0 0.00 0.07 0.07 51 1008.5
20190615152017 65 201 12.0 17.0 0.00 0.07 0.07 46 1008.7
20190615151018 66 209 10.0 14.0 0.00 0.07 0.07 47 1008.5
20190615150018 66 223 11.0 16.0 0.00 0.07 0.07 48 1008.4
20190615145017 66 222 11.0 18.0 0.00 0.07 0.07 50 1008.2
20190615144018 65 206 11.0 14.0 0.00 0.07 0.07 50 1007.9
20190615143033 65 197 12.0 16.0 0.00 0.07 0.07 50 1008.0
20190615142017 66 200 12.0 22.0 0.00 0.07 0.07 49 1008.2
20190615141018 65 204 13.0 22.0 0.00 0.07 0.07 49 1008.1
20190615140018 66 176 10.0 16.0 0.00 0.07 0.07 48 1008.0
20190615135018 66 189 9.0 13.0 0.00 0.07 0.07 50 1007.8
20190615134018 65 183 10.0 15.0 0.00 0.07 0.07 51 1008.0
20190615133018 65 199 10.0 14.0 0.00 0.07 0.07 53 1007.9
20190615132018 65 196 9.0 11.0 0.00 0.07 0.07 53 1007.8
20190615131018 66 191 9.0 15.0 0.00 0.07 0.07 53 1007.8
20190615130018 65 154 10.0 16.0 0.00 0.07 0.07 54 1007.7
20190615125018 67 241 7.0 15.0 0.00 0.07 0.07 52 1007.8
20190615124018 66 196 9.0 13.0 0.00 0.07 0.07 56 1007.7
20190615123017 64 194 10.0 15.0 0.00 0.07 0.07 55 1007.9
20190615122018 65 162 9.0 12.0 0.00 0.07 0.07 58 1007.8
20190615121018 64 222 11.0 15.0 0.00 0.07 0.07 59 1007.8
20190615120018 66 220 10.0 17.0 0.00 0.07 0.07 55 1007.5
20190615115018 66 236 7.0 11.0 0.00 0.07 0.07 58 1007.7
20190615114019 64 258 6.0 9.0 0.00 0.07 0.07 58 1007.4
20190615113029 65 176 10.0 14.0 0.00 0.07 0.07 60 1007.2
20190615112030 66 215 8.0 11.0 0.00 0.07 0.07 60 1007.5
20190615111030 64 196 10.0 14.0 0.00 0.07 0.07 60 1007.2
20190615110028 65 195 7.0 10.0 0.00 0.07 0.07 61 1007.2
20190615105030 63 157 9.0 12.0 0.00 0.07 0.07 65 1007.1
20190615104030 63 183 11.0 15.0 0.00 0.07 0.07 68 1007.1
20190615103030 62 178 10.0 15.0 0.00 0.07 0.07 71 1007.2
20190615102030 62 154 9.0 15.0 0.00 0.07 0.07 71 1007.1
20190615101030 61 184 7.0 13.0 0.00 0.07 0.07 72 1006.9
20190615100031 61 225 5.0 10.0 0.00 0.08 0.07 79 1007.1
20190615095030 59 192 8.0 11.0 0.00 0.08 0.07 79 1006.9
20190615094030 58 187 9.0 11.0 0.00 0.08 0.07 82 1007.0
20190615093030 58 172 7.0 10.0 0.00 0.08 0.07 89 1006.9
20190615092027 56 1 10.0 15.0 0.00 0.08 0.07 90 1006.7
20190615091031 55 210 7.0 13.0 0.00 0.08 0.07 90 1006.8
20190615090031 54 199 7.0 11.0 0.00 0.08 0.07 90 1006.6
20190615085031 54 210 7.0 11.0 0.01 0.08 0.07 93 1006.7
20190615084030 54 206 10.0 17.0 0.01 0.08 0.07 93 1006.7
20190615083031 54 182 10.0 17.0 0.02 0.08 0.07 93 1006.5
20190615082031 54 221 10.0 17.0 0.02 0.08 0.07 93 1006.7
20190615081031 54 198 9.0 15.0 0.02 0.08 0.07 92 1006.6
20190615080031 54 171 9.0 17.0 0.02 0.08 0.07 92 1006.6
20190615075031 54 192 9.0 13.0 0.02 0.07 0.06 92 1006.5
20190615074031 54 188 10.0 16.0 0.04 0.07 0.06 92 1006.6
20190615073031 54 217 7.0 9.0 0.04 0.06 0.05 91 1006.5
20190615072031 54 282 8.0 9.0 0.04 0.06 0.05 91 1006.2
20190615071026 54 245 7.0 10.0 0.04 0.06 0.05 90 1006.4
20190615070030 54 217 7.0 11.0 0.04 0.06 0.05 90 1006.3
20190615065030 54 173 8.0 11.0 0.02 0.04 0.02 89 1006.5
20190615064030 54 204 8.0 11.0 0.02 0.04 0.02 89 1006.3
20190615063030 54 193 6.0 10.0 0.01 0.02 0.01 89 1006.4
20190615062030 54 215 7.0 16.0 0.01 0.02 0.01 88 1006.4
20190615061030 54 188 9.0 11.0 0.01 0.02 0.01 88 1006.1
20190615060030 54 182 8.0 13.0 0.01 0.02 0.01 88 1006.2
20190615055030 54 186 8.0 11.0 0.00 0.01 0.00 87 1006.3
20190615054031 54 175 7.0 11.0 0.00 0.01 0.00 87 1006.1
20190615053030 54 183 8.0 11.0 0.00 0.01 0.00 87 1006.2
20190615052030 54 211 11.0 15.0 0.00 0.01 0.00 87 1006.3
20190615051030 54 253 10.0 15.0 0.00 0.01 0.00 86 1005.9
20190615050031 54 178 9.0 16.0 0.00 0.01 0.00 86 1006.0
20190615045031 54 217 9.0 16.0 0.00 0.01 0.00 86 1006.2